Preview of NWS' New Version of Forecast
This preview is not operational and should not be used for support decisions.

Regional Weather Roundup (RWR)

Issued by National Weather Service (NWS)

                            
000
ASUS43 KDTX 220001
RWRMI 
MICHIGAN HOURLY REGIONAL WEATHER ROUNDUP
NATIONAL WEATHER SERVICE DETROIT/PONTIAC MI
800 PM EDT SUN APR 21 2019

NOTE: "FAIR" INDICATES FEW OR NO CLOUDS BELOW 12,000 FEET WITH NO
SIGNIFICANT WEATHER AND/OR OBSTRUCTION TO VISIBILITY.

MIZ047>049-052>055-059>063-066>070-074>076-081>083-220100-
SOUTHEAST LOWER MICHIGAN
  
CITY           SKY/WX    TMP DP  RH WIND       PRES   REMARKS
ADRIAN         FAIR      62  42  47 SW9       30.11R                  
6HR MIN TEMP:  60; 6HR MAX TEMP:  65;                                

ALMA           FAIR      65  39  38 SE6       30.05S                  
6HR MIN TEMP:  65; 6HR MAX TEMP:  72;                                

ANN ARBOR      FAIR      62  46  55 SE8       30.09R                  
BAD AXE        FAIR      57  44  62 E7        30.08S                  
6HR MIN TEMP:  57; 6HR MAX TEMP:  62;                                

CARO           FAIR      61  35  38 S5        30.07S                  
DETROIT CITY   MOCLDY    56  37  49 S8        30.11R                  
6HR MIN TEMP:  56; 6HR MAX TEMP:  66;                                

DETROIT        MOCLDY    58  42  55 S10       30.10S                  
6HR MIN TEMP:  58; 6HR MAX TEMP:  66;                                

FLINT          FAIR      62  39  42 SE7       30.07S                  
6HR MIN TEMP:  62; 6HR MAX TEMP:  69;                                

GROSSE ILE     CLOUDY    52  42  68 S8        30.10S                  
6HR MIN TEMP:  49; 6HR MAX TEMP:  54;                                

HILLSDALE      FAIR      62  40  44 S9        30.09R                  
6HR MIN TEMP:  62; 6HR MAX TEMP:  68;                                

HOWELL         FAIR      65  19  17 S3        30.07S                  
6HR MIN TEMP:  63; 6HR MAX TEMP:  68;                                


CITY           SKY/WX    TMP DP  RH WIND       PRES   REMARKS
JACKSON        FAIR      65  35  33 SE6       30.07S                  
6HR MIN TEMP:  63; 6HR MAX TEMP:  69;                                

LAMBERTVILLE   MOCLDY    62  45  53 S8        30.10S                  
6HR MIN TEMP:  60; 6HR MAX TEMP:  65;                                

LANSING        FAIR      65  38  36 S9        30.05S                  
6HR MIN TEMP:  65; 6HR MAX TEMP:  71;                                

LAPEER         FAIR      61  38  43 SE6       30.09R                  
6HR MIN TEMP:  60; 6HR MAX TEMP:  67;                                

MASON          FAIR      66  35  32 SE5       30.07S                  
6HR MIN TEMP:  64; 6HR MAX TEMP:  69;                                

MONROE         CLOUDY    59  46  62 S7        30.10R                  
6HR MIN TEMP:  59; 6HR MAX TEMP:  62;                                

PONTIAC        MOCLDY    60  45  57 SE10      30.07R                  
6HR MIN TEMP:  60; 6HR MAX TEMP:  68;                                

PORT HOPE        N/A     53  28  38 SE8       30.07F                  
6HR MIN TEMP:  45; 6HR MAX TEMP:  53;                                

TRI CITIES     FAIR      64  39  39 S8        30.05R                  
6HR MIN TEMP:  63; 6HR MAX TEMP:  70;                                

MIDLAND        FAIR      67  35  31 SE6       30.04R                  
6HR MIN TEMP:  67; 6HR MAX TEMP:  72;                                

TROY           FAIR      59  40  49 SE8       30.12R                  
SAGINAW HB     FAIR      64  39  39 SE9       30.06R                  
$$
MIZ043>046-050>051-056>058-064>065-071>073-077>080-220100-
SOUTHWEST LOWER MICHIGAN
  
CITY           SKY/WX    TMP DP  RH WIND       PRES   REMARKS
BATTLE CREEK   FAIR      66  34  30 S8        30.06R                  
6HR MIN TEMP:  65; 6HR MAX TEMP:  71;                                

BENTON HARBOR  FAIR      71  33  24 S10       30.02R                  
6HR MIN TEMP:  69; 6HR MAX TEMP:  74;                                

BIG RAPIDS     FAIR      69  33  26 SW6       30.01R                  
6HR MIN TEMP:  68; 6HR MAX TEMP:  73;                                

COLDWATER      FAIR      65  37  36 S7        30.08R                  
6HR MIN TEMP:  63; 6HR MAX TEMP:  69;                                

FREMONT        FAIR      69  27  21 SW6       30.01R                  
6HR MIN TEMP:  67; 6HR MAX TEMP:  73;                                

HOLLAND        FAIR      68  35  29 SW6       30.02R                  
6HR MIN TEMP:  67; 6HR MAX TEMP:  72;                                

GRAND RAPIDS   FAIR      69  37  30 S9        30.02S                  
6HR MIN TEMP:  65; 6HR MAX TEMP:  72;                                

IONIA          FAIR      66  33  28 SE8       30.03S                  
6HR MIN TEMP:  66; 6HR MAX TEMP:  71;                                

KALAMAZOO      FAIR      68  34  28 SE7       30.06R                  
6HR MIN TEMP:  65; 6HR MAX TEMP:  72;                                

LUDINGTON      FAIR      65  29  26 S7        30.00R                  
6HR MIN TEMP:  65; 6HR MAX TEMP:  70;                                

MARSHALL       FAIR      65  33  29 S5        30.06S                  
6HR MIN TEMP:  64; 6HR MAX TEMP:  70;                                

MOUNT PLEASANT FAIR      67  37  32 SE8       30.03S                  
6HR MIN TEMP:  67; 6HR MAX TEMP:  72;                                

MUSKEGON       FAIR      67  26  21 S8        30.02R                  
6HR MIN TEMP:  63; 6HR MAX TEMP:  70;                                

SOUTH HAVEN    FAIR      72  25  17 S8        30.02R                  
$$
MIZ016>042-220100-
NORTHERN LOWER MICHIGAN
  
CITY           SKY/WX    TMP DP  RH WIND       PRES   REMARKS
ALPENA         FAIR      53  17  24 SE9       30.07R                  
6HR MIN TEMP:  51; 6HR MAX TEMP:  63;                                

BEAVER ISLAND  CLOUDY    53  29  39 E7        30.05F                  
6HR MIN TEMP:  53; 6HR MAX TEMP:  59;                                

BELLAIRE       MOCLDY    58  31  35 N3        30.03R                  
6HR MIN TEMP:  58; 6HR MAX TEMP:  75;                                

CADILLAC       FAIR      70  32  24 S6        30.00R                  
CHARLEVOIX     FAIR      44  32  63 N8        30.07R                  
6HR MIN TEMP:  44; 6HR MAX TEMP:  65;                                

FRANKFORT      FAIR      60  25  26 W5        30.01R                  
GAYLORD        FAIR      65  41  41 NE8       30.00R                  
6HR MIN TEMP:  60; 6HR MAX TEMP:  70;                                

HARBOR SPRINGS MOCLDY    59  24  25 NE6       30.04R                  
HOUGHTON LAKE  FAIR      67  31  26 S10       30.02R                  
6HR MIN TEMP:  66; 6HR MAX TEMP:  71;                                

MANISTEE       FAIR      68  33  27 S9        29.99R                  
OSCODA         FAIR      48  28  47 SE5       30.07R                  
6HR MIN TEMP:  48; 6HR MAX TEMP:  64;                                

PELLSTON       MOCLDY    56  24  29 NE9       30.05R                  
6HR MIN TEMP:  56; 6HR MAX TEMP:  67;                                

ROGERS CITY    CLOUDY    52  29  40 E5        30.07R                  
TRAVERSE CITY  FAIR      50  35  56 NE8       30.03R                  
6HR MIN TEMP:  49; 6HR MAX TEMP:  77;                                

$$
MIZ007>008-015-220100-
EASTERN UPPER MICHIGAN
  
CITY           SKY/WX    TMP DP  RH WIND       PRES   REMARKS
KINROSS        CLOUDY    54  25  32 NE6       30.08R                  
6HR MIN TEMP:  52; 6HR MAX TEMP:  57; 6HR PCP: TRACE;                

MACKINAC ISLAN MOCLDY    48  25  40 E14G21    30.06R                  
6HR MIN TEMP:  48; 6HR MAX TEMP:  56;                                

NEWBERRY       LGT RAIN  46  42  87 N5        30.06R                  
6HR MIN TEMP:  46; 6HR MAX TEMP:  53; 6HR PCP:  0.01;                

S. S. MARIE    CLOUDY    54  28  36 CALM      30.08R                  
6HR MIN TEMP:  54; 6HR MAX TEMP:  57;                                

MUNISING         N/A     35  33  92 NE3       30.08R                  
6HR MIN TEMP:  34; 6HR MAX TEMP:  40; 6HR PCP:  0.01;                

$$
MIZ004>006-011>014-085-220100-
CENTRAL UPPER MICHIGAN
  
CITY           SKY/WX    TMP DP  RH WIND       PRES   REMARKS
MANISTIQUE     CLOUDY    47  31  53 NW3       30.04R                  
6HR MIN TEMP:  46; 6HR MAX TEMP:  52;                                

ESCANABA       LGT RAIN  44  35  70 E6        30.04R                  
6HR MIN TEMP:  44; 6HR MAX TEMP:  59; 6HR PCP: TRACE;                

MENOMINEE      FAIR      47  31  53 E15       30.01R                  
6HR MIN TEMP:  47; 6HR MAX TEMP:  58;                                

SAWYER-GWINN   CLOUDY    39  34  81 N8        30.06R WCI  34          
$$
MIZ001>003-009>011-084-220100-
WESTERN UPPER MICHIGAN
  
CITY           SKY/WX    TMP DP  RH WIND       PRES   REMARKS
IRON MOUNTAIN  FAIR      53  32  44 NE7       30.01R                  
6HR MIN TEMP:  53; 6HR MAX TEMP:  64; 6HR PCP: TRACE;                

HOUGHTON       LGT RAIN  43  37  79 NE8       30.09R                  
6HR MIN TEMP:  42; 6HR MAX TEMP:  48; 6HR PCP:  0.14;                

COPPER HARBOR    N/A     39  37  92 SW6       30.12R WCI  35          
6HR MIN TEMP:  38; 6HR MAX TEMP:  39; 6HR PCP:  0.12;                

IRONWOOD       CLOUDY    42  38  85 NE8       30.06R                  
6HR MIN TEMP:  42; 6HR MAX TEMP:  47;                                

$$

ABBREVIATIONS USED IN REMARKS
   TC - TEMPERATURE IN CELSIUS
  WCI - WIND CHILL INDEX
   HX - HEAT INDEX
  VSB - VISIBILITY